51,2013-07-17 19:28:27,1374089307,55.20787,-10.10259,2,2,2013-07-17 19:27:00,1374089220,17.43,9,15.8,0,4095,55.2018,-10.0746,44,40
52,2013-07-17 19:54:30,1374090870,55.16348,-10.02979,3,1,2013-07-17 19:53:00,1374090780,15.1,6,15.8,0,4095,55.2018,-10.0734,158,40
53,2013-07-17 20:06:09,1374091569,55.20787,-10.10259,2,1,2013-07-17 20:00:00,1374091200,15.11,6,15.8,0,4095,55.2018,-10.0734,158,40
54,2013-07-17 21:06:10,1374095170,55.20787,-10.10259,2,2,2013-07-17 21:00:00,1374094800,15.1,4,15.8,30,0,55.2094,-10.061,34,40
55,2013-07-17 22:06:09,1374098769,55.24209,-10.0517,10,3,2013-07-17 22:00:00,1374098400,15.09,4,15.8,30,60,55.2094,-10.061,34,40
56,2013-07-17 23:06:11,1374102371,55.1686,-9.96798,3,2,2013-07-17 23:00:00,1374102000,15.09,4,15.8,30,120,55.2094,-10.061,34,40
57,2013-07-18 00:06:11,1374105971,55.21816,-9.97886,4,1,2013-07-18 00:00:00,1374105600,15.08,3,15.8,30,0,55.2068,-10.0152,52,40
58,2013-07-18 01:06:09,1374109569,55.24723,-9.98976,8,2,2013-07-18 01:00:00,1374109200,15.07,4,15.8,30,60,55.2068,-10.0152,52,40
59,2013-07-18 02:06:09,1374113169,55.19766,-9.97886,2,1,2013-07-18 02:00:00,1374112800,15.09,3,15.8,30,120,55.2068,-10.0152,52,40
60,2013-07-18 03:06:12,1374116772,55.18737,-10.10259,2,1,2013-07-18 03:00:00,1374116400,15.09,3,15.8,30,0,55.2026,-10.0032,32,44
61,2013-07-18 04:06:10,1374120370,55.19253,-10.04073,2,2,2013-07-18 04:00:00,1374120000,15.11,4,15.8,30,60,55.2026,-10.0032,32,44
62,2013-07-18 05:06:10,1374123970,55.21816,-9.97886,3,3,2013-07-18 05:00:00,1374123600,15.12,5,15.8,30,120,55.2026,-10.0032,32,44
63,2013-07-18 06:06:15,1374127575,55.21816,-9.97886,2,0,2013-07-18 06:00:00,1374127200,15.1,3,15.8,30,0,55.2078,-10.0128,32,40
64,2013-07-18 07:06:12,1374131172,55.21303,-10.04073,2,2,2013-07-18 07:00:00,1374130800,15.12,3,15.8,30,60,55.2078,-10.0128,32,40
65,2013-07-18 08:06:12,1374134772,55.19253,-10.04073,6,0,2013-07-18 08:00:00,1374134400,15.15,3,15.8,30,120,55.2078,-10.0128,32,40
66,2013-07-18 09:06:14,1374138374,55.21303,-10.04073,3,29,2013-07-18 09:00:00,1374138000,15.18,3,15.8,30,0,55.2224,-10.0128,32,44
67,2013-07-18 10:06:11,1374141971,55.20159,-12.80148,192,1,2013-07-18 10:00:00,1374141600,15.21,3,15.8,30,60,55.2224,-10.0128,32,44
68,2013-07-18 11:06:10,1374145570,55.21816,-9.97886,2,3,2013-07-18 11:00:00,1374145200,15.23,3,15.8,30,120,55.2224,-10.0128,32,44
69,2013-07-18 12:06:13,1374149173,55.24153,-10.75488,96,4,2013-07-18 12:00:00,1374148800,15.27,3,15.8,30,0,55.2336,-9.9812,32,44
70,2013-07-18 13:06:15,1374152775,55.21816,-9.97886,4,2,2013-07-18 13:00:00,1374152400,15.31,3,15.8,30,60,55.2336,-9.9812,32,44
71,2013-07-18 14:06:18,1374156378,55.23173,-10.17551,64,2,2013-07-18 14:00:00,1374156000,15.34,2,15.8,30,120,55.2336,-9.9812,32,44
72,2013-07-18 15:06:13,1374159973,55.24723,-9.98976,2,9,2013-07-18 15:00:00,1374159600,15.42,3,15.8,30,0,55.231,-9.9632,32,40
73,2013-07-18 16:06:09,1374163569,55.24723,-9.98976,1476,3,2013-07-18 16:00:00,1374163200,15.47,3,15.8,30,60,55.231,-9.9632,32,40
74,2013-07-18 17:06:12,1374167172,55.27281,-9.92779,7,2,2013-07-18 17:00:00,1374166800,15.49,3,15.8,30,120,55.231,-9.9632,32,40
75,2013-07-18 18:06:46,1374170806,55.21303,-10.04073,5,2,2013-07-18 18:00:00,1374170400,15.46,3,15.8,30,0,55.2304,-9.98159999999999,32,44
76,2013-07-18 19:06:14,1374174374,55.24723,-9.98976,5,6,2013-07-18 19:00:00,1374174000,15.51,3,15.8,46,60,55.2304,-9.98159999999999,32,44
77,2013-07-18 20:06:10,1374177970,55.22239,-6.55551,231,8,2013-07-18 20:00:00,1374177600,15.54,3,15.8,30,120,55.2304,-9.98159999999999,32,44
78,2013-07-18 21:06:11,1374181571,55.2677,-9.98976,4,13,2013-07-18 21:00:00,1374181200,15.53,3,15.8,30,0,55.2472,-9.99539999999999,32,40
79,2013-07-18 22:06:13,1374185173,55.24723,-9.98976,6,3,2013-07-18 22:00:00,1374184800,15.48,2,15.8,30,60,55.2472,-9.99539999999999,32,40
80,2013-07-18 23:06:11,1374188771,55.27281,-9.92779,2,8,2013-07-18 23:00:00,1374188400,15.49,4,15.8,30,120,55.2472,-9.99539999999999,32,40
81,2013-07-19 00:06:12,1374192372,55.21816,-9.97886,4,1,2013-07-19 00:00:00,1374192000,15.49,2,15.8,30,0,55.2676,-9.96939999999998,32,40
82,2013-07-19 01:06:10,1374195970,55.48648,-5.89963,264,7,2013-07-19 01:00:00,1374195600,15.43,3,15.8,30,60,55.2676,-9.96939999999998,32,40
83,2013-07-19 02:06:11,1374199571,55.24723,-9.98976,6,1,2013-07-19 02:00:00,1374199200,15.39,4,15.8,30,120,55.2676,-9.96939999999998,32,40
84,2013-07-19 03:06:11,1374203171,55.22326,-9.91696,10,4,2013-07-19 03:00:00,1374202800,15.38,3,15.8,30,0,55.2678,-9.9426,50,40
85,2013-07-19 04:06:11,1374206771,55.27281,-9.92779,3,7,2013-07-19 04:00:00,1374206400,15.34,3,15.8,30,60,55.2678,-9.9426,50,40
86,2013-07-19 05:06:16,1374210376,55.2677,-9.98976,4,1,2013-07-19 05:00:00,1374210000,15.35,4,15.8,30,120,55.2678,-9.9426,50,40
87,2013-07-19 06:06:13,1374213973,55.2677,-9.98976,4,1,2013-07-19 06:00:00,1374213600,15.33,4,15.8,30,0,55.2632,-9.94899999999998,152,40
88,2013-07-19 07:06:10,1374217570,55.24723,-9.98976,2,2,2013-07-19 07:00:00,1374217200,15.32,4,15.8,30,60,55.2632,-9.94899999999998,152,40
89,2013-07-19 08:06:13,1374221173,55.29679,-10.00068,11,1,2013-07-19 08:00:00,1374220800,15.31,3,15.8,30,120,55.2632,-9.94899999999998,152,40
90,2013-07-19 09:06:20,1374224780,55.27281,-9.92779,2,6,2013-07-19 09:00:00,1374224400,15.32,4,15.8,30,0,55.2686,-9.97379999999998,32,44
91,2013-07-19 10:06:22,1374228382,55.19774,-15.01243,326,1,2013-07-19 10:00:00,1374228000,15.35,4,15.8,30,60,55.2686,-9.97379999999998,32,44
92,2013-07-19 11:06:36,1374231996,55.25234,-9.92779,4,3,2013-07-19 11:00:00,1374231600,15.4,4,15.8,30,120,55.2686,-9.97379999999998,32,44
93,2013-07-19 12:06:14,1374235574,55.43404,-12.80987,192,3,2013-07-19 12:00:00,1374235200,15.47,3,15.8,37,0,55.281,-9.96259999999998,50,44
94,2013-07-19 13:06:12,1374239172,55.29679,-10.00068,1,2,2013-07-19 13:00:00,1374238800,15.55,4,15.8,30,60,55.281,-9.96259999999998,50,44
95,2013-07-19 14:06:11,1374242771,55.27281,-9.92779,3,2,2013-07-19 14:00:00,1374242400,15.65,5,15.8,30,120,55.281,-9.96259999999998,50,44
96,2013-07-19 15:06:10,1374246370,55.27281,-9.92779,2,3,2013-07-19 15:00:00,1374246000,15.67,3,15.8,30,0,55.2848,-9.9478,92,40
97,2013-07-19 16:06:11,1374249971,55.22371,-9.15234,82,3,2013-07-19 16:00:00,1374249600,15.68,4,15.8,30,60,55.2848,-9.9478,92,40
98,2013-07-19 17:06:14,1374253574,55.2677,-9.98976,2,4,2013-07-19 17:00:00,1374253200,15.68,4,15.8,30,120,55.2848,-9.9478,92,40
99,2013-07-19 18:06:12,1374257172,55.29188,-8.91371,98,6,2013-07-19 18:00:00,1374256800,15.76,4,15.8,30,0,55.2824,-9.95480000000001,32,44
100,2013-07-19 19:06:13,1374260773,55.29679,-10.00068,3,2,2013-07-19 19:00:00,1374260400,15.75,4,15.8,30,60,55.2824,-9.95480000000001,32,44
101,2013-07-19 20:06:12,1374264372,55.25234,-9.92779,13,7,2013-07-19 20:00:00,1374264000,15.75,3,15.8,30,120,55.2824,-9.95480000000001,32,44
102,2013-07-19 21:06:28,1374267988,55.3019,-9.93865,2,3,2013-07-19 21:00:00,1374267600,15.7,4,15.8,30,0,55.2898,-9.95999999999998,64,28
103,2013-07-19 22:06:13,1374271573,55.27281,-9.92779,4,3,2013-07-19 22:00:00,1374271200,15.69,5,15.8,30,60,55.2898,-9.95999999999998,64,28
104,2013-07-19 23:06:13,1374275173,55.2677,-9.98976,10,1,2013-07-19 23:00:00,1374274800,15.68,3,15.8,30,120,55.2898,-9.95999999999998,64,28
105,2013-07-20 00:06:11,1374278771,55.27281,-9.92779,4,1,2013-07-20 00:00:00,1374278400,15.69,4,15.8,30,0,55.3,-9.9462,50,44
106,2013-07-20 01:06:09,1374282369,55.30698,-9.8766,4,1,2013-07-20 01:00:00,1374282000,15.68,4,15.8,30,60,55.3,-9.9462,50,44
107,2013-07-20 02:06:13,1374285973,55.27281,-9.92779,3,1,2013-07-20 02:00:00,1374285600,15.68,4,15.8,30,120,55.3,-9.9462,50,44
108,2013-07-20 03:06:10,1374289570,55.35145,-9.94954,7,6,2013-07-20 03:00:00,1374289200,15.66,3,15.8,30,0,55.3046,-9.9196,34,40
109,2013-07-20 04:06:09,1374293169,55.27788,-9.86581,2,1,2013-07-20 04:00:00,1374292800,15.65,3,15.8,30,60,55.3046,-9.9196,34,40
110,2013-07-20 05:06:09,1374296769,55.27281,-9.92779,3,1,2013-07-20 05:00:00,1374296400,15.65,4,15.8,30,120,55.3046,-9.9196,34,40
111,2013-07-20 06:06:09,1374300369,55.3019,-9.93865,2,1,2013-07-20 06:00:00,1374300000,15.66,3,15.8,30,0,55.2972,-9.9144,36,40
112,2013-07-20 07:06:14,1374303974,55.27788,-9.86581,15,1,2013-07-20 07:00:00,1374303600,15.7,4,15.8,30,60,55.2972,-9.9144,36,40
113,2013-07-20 08:06:12,1374307572,55.30698,-9.8766,2,3,2013-07-20 08:00:00,1374307200,15.75,3,15.8,30,120,55.2972,-9.9144,36,40
114,2013-07-20 09:06:14,1374311174,55.29679,-10.00068,2,1,2013-07-20 09:00:00,1374310800,15.93,3,15.8,30,0,55.3012,-9.9308,42,40
115,2013-07-20 10:06:13,1374314773,55.27281,-9.92779,8,2,2013-07-20 10:00:00,1374314400,16.08,4,15.8,30,60,55.3012,-9.9308,42,40
116,2013-07-20 11:06:09,1374318369,55.3019,-9.93865,1,2,2013-07-20 11:00:00,1374318000,16.43,3,15.8,30,120,55.3012,-9.9308,42,40
117,2013-07-20 12:06:13,1374321973,55.59062,-15.29969,352,3,2013-07-20 12:00:00,1374321600,16.56,3,15.8,30,0,55.3044,-9.9264,56,40
118,2013-07-20 13:06:14,1374325574,55.32235,-9.93865,5,2,2013-07-20 13:00:00,1374325200,16.25,2,15.8,30,60,55.3044,-9.9264,56,40
119,2013-07-20 14:06:09,1374329169,55.48877,-14.38925,10,2,2013-07-20 14:00:00,1374328800,16.23,3,15.8,30,120,55.3044,-9.9264,56,40
120,2013-07-20 15:06:13,1374332773,55.30698,-9.8766,3,3,2013-07-20 15:00:00,1374332400,16.53,3,15.8,30,0,55.3082,-9.9014,32,32
121,2013-07-20 16:06:10,1374336370,55.3764,-11.37182,114,6,2013-07-20 16:00:00,1374336000,16.71,4,15.8,30,60,55.3082,-9.9014,32,32
122,2013-07-20 17:06:09,1374339969,55.3019,-9.93865,2,2,2013-07-20 17:00:00,1374339600,16.81,4,15.8,30,120,55.3082,-9.9014,32,32
123,2013-07-20 18:06:12,1374343572,55.22371,-9.15234,152,2,2013-07-20 18:00:00,1374343200,17.02,4,15.8,30,0,55.3016,-9.9074,62,40
124,2013-07-20 19:06:12,1374347172,55.27281,-9.92779,5,4,2013-07-20 19:00:00,1374346800,17.16,4,15.8,30,60,55.3016,-9.9074,62,40
125,2013-07-20 20:06:11,1374350771,55.24425,-8.45923,117,6,2013-07-20 20:00:00,1374350400,17.23,3,15.8,30,120,55.3016,-9.9074,62,40
126,2013-07-20 21:06:14,1374354374,55.29679,-10.00068,2,4,2013-07-20 21:00:00,1374354000,17.11,3,15.8,30,0,55.3132,-9.9384,32,44
127,2013-07-20 22:06:09,1374357969,55.3019,-9.93865,3,2,2013-07-20 22:00:00,1374357600,17.07,3,15.8,30,60,55.3132,-9.9384,32,44
128,2013-07-20 23:06:09,1374361569,55.3019,-9.93865,2,9,2013-07-20 23:00:00,1374361200,17.09,3,15.8,30,120,55.3132,-9.9384,32,44
129,2013-07-21 00:06:14,1374365174,55.3019,-9.93865,2,4,2013-07-21 00:00:00,1374364800,17.06,3,15.8,30,0,55.3304,-9.9314,32,44
130,2013-07-21 01:06:09,1374368769,55.35654,-9.88742,23,2,2013-07-21 01:00:00,1374368400,16.94,3,15.8,30,60,55.3304,-9.9314,32,44
131,2013-07-21 02:06:10,1374372370,55.32743,-9.8766,2,2,2013-07-21 02:00:00,1374372000,16.93,3,15.8,30,120,55.3304,-9.9314,32,44
132,2013-07-21 03:06:12,1374375972,55.44108,-7.28968,178,2,2013-07-21 03:00:00,1374375600,16.68,3,15.8,30,0,55.3366,-9.8896,32,44
133,2013-07-21 04:06:11,1374379571,55.35145,-9.94954,2,1,2013-07-21 04:00:00,1374379200,16.61,3,15.8,30,60,55.3366,-9.8896,32,44
134,2013-07-21 05:06:11,1374383171,55.33248,-9.81452,3,7,2013-07-21 05:00:00,1374382800,16.48,3,15.8,30,120,55.3366,-9.8896,32,44
135,2013-07-21 06:06:21,1374386781,55.33248,-9.81452,2,0,2013-07-21 06:00:00,1374386400,16.46,4,15.8,30,0,55.3214,-9.8758,80,40
136,2013-07-21 07:06:12,1374390372,55.32235,-9.93865,3,4,2013-07-21 07:00:00,1374390000,16.45,4,15.8,30,60,55.3214,-9.8758,80,40
137,2013-07-21 08:06:10,1374393970,55.30698,-9.8766,4,0,2013-07-21 08:00:00,1374393600,16.44,4,15.8,30,120,55.3214,-9.8758,80,40
138,2013-07-21 09:06:11,1374397571,55.3019,-9.93865,4,1,2013-07-21 09:00:00,1374397200,16.52,3,15.8,30,0,55.3186,-9.9194,66,40
139,2013-07-21 10:06:15,1374401175,55.35145,-9.94954,6,2,2013-07-21 10:00:00,1374400800,16.58,3,15.6,30,60,55.3186,-9.9194,66,40
140,2013-07-21 11:06:10,1374404770,55.3019,-9.93865,2,2,2013-07-21 11:00:00,1374404400,16.67,3,15.6,30,120,55.3186,-9.9194,66,40
141,2013-07-21 12:06:14,1374408374,55.37544,-10.0226,4,8,2013-07-21 12:00:00,1374408000,16.74,4,15.6,30,0,55.3418,-9.94979999999998,62,40
142,2013-07-21 13:06:11,1374411971,55.35145,-9.94954,4,2,2013-07-21 13:00:00,1374411600,16.84,4,15.6,30,60,55.3418,-9.94979999999998,62,40
143,2013-07-21 14:06:12,1374415572,55.60259,-14.37509,289,2,2013-07-21 14:00:00,1374415200,16.9,4,15.6,30,120,55.3418,-9.94979999999998,62,40
144,2013-07-21 15:06:10,1374419170,55.32743,-9.8766,4,2,2013-07-21 15:00:00,1374418800,16.9,3,15.6,30,0,55.3622,-9.898,62,40
145,2013-07-21 16:06:10,1374422770,55.44207,-11.84307,160,6,2013-07-21 16:00:00,1374422400,16.98,4,15.6,30,60,55.3622,-9.898,62,40
146,2013-07-21 17:06:12,1374426372,55.41114,-9.83605,9,1,2013-07-21 17:00:00,1374426000,16.98,4,15.6,30,120,55.3622,-9.898,62,40
147,2013-07-21 18:06:13,1374429973,55.38052,-10.66619,82,2,2013-07-21 18:00:00,1374429600,16.96,4,15.6,30,0,55.3496,-9.86179999999999,88,40
148,2013-07-21 19:06:13,1374433573,55.3616,-9.82528,5,2,2013-07-21 19:00:00,1374433200,16.87,4,15.6,30,60,55.3496,-9.86179999999999,88,40
149,2013-07-21 20:06:12,1374437172,55.39544,-10.72821,108,3,2013-07-21 20:00:00,1374436800,16.79,4,15.6,30,120,55.3496,-9.86179999999999,88,40
150,2013-07-21 21:06:10,1374440770,55.35145,-9.94954,4,2,2013-07-21 21:00:00,1374440400,16.78,4,15.6,30,0,55.3384,-9.89439999999999,56,40
151,2013-07-21 22:06:14,1374444374,55.32235,-9.93865,15,5,2013-07-21 22:00:00,1374444000,16.74,3,15.6,30,60,55.3384,-9.89439999999999,56,40
152,2013-07-21 23:06:19,1374447979,55.35654,-9.88742,2,1,2013-07-21 23:00:00,1374447600,16.64,3,15.6,30,120,55.3384,-9.89439999999999,56,40
153,2013-07-22 00:06:21,1374451581,55.35654,-9.88742,2,1,2013-07-22 00:00:00,1374451200,16.61,3,15.6,30,0,55.365,-9.93259999999998,32,40
154,2013-07-22 01:06:16,1374455176,55.36508,-10.14685,75,1,2013-07-22 01:00:00,1374454800,16.63,3,15.6,30,60,55.365,-9.93259999999998,32,40
155,2013-07-22 02:06:14,1374458774,55.38057,-9.96044,2,2,2013-07-22 02:00:00,1374458400,16.64,3,15.6,30,120,55.365,-9.93259999999998,32,40
156,2013-07-22 03:06:13,1374462373,55.37163,-9.70092,72,6,2013-07-22 03:00:00,1374462000,16.63,3,15.6,30,0,55.3882,-9.8912,32,44
157,2013-07-22 04:06:13,1374465973,55.41114,-9.83605,3,1,2013-07-22 04:00:00,1374465600,16.59,3,15.6,30,60,55.3882,-9.8912,32,44
158,2013-07-22 05:06:13,1374469573,55.40607,-9.89826,7,4,2013-07-22 05:00:00,1374469200,16.59,3,15.6,30,120,55.3882,-9.8912,32,44
159,2013-07-22 06:06:12,1374473172,55.40607,-9.89826,4,2,2013-07-22 06:00:00,1374472800,16.6,4,15.6,30,0,55.3816,-9.83920000000001,34,40
160,2013-07-22 07:06:10,1374476770,55.35654,-9.88742,5,1,2013-07-22 07:00:00,1374476400,16.58,4,15.6,30,60,55.3816,-9.83920000000001,34,40
161,2013-07-22 08:06:12,1374480372,55.41114,-9.83605,7,1,2013-07-22 08:00:00,1374480000,16.72,3,15.6,30,120,55.3816,-9.83920000000001,34,40
162,2013-07-22 09:06:11,1374483971,55.35654,-9.88742,4,0,2013-07-22 09:00:00,1374483600,16.74,3,15.6,30,0,55.3662,-9.8484,56,40
163,2013-07-22 10:06:09,1374487569,55.3616,-9.82528,1,1,2013-07-22 10:00:00,1374487200,16.82,4,15.6,30,60,55.3662,-9.8484,56,40
164,2013-07-22 11:06:10,1374491170,55.35654,-9.88742,7,2,2013-07-22 11:00:00,1374490800,16.87,4,15.6,30,120,55.3662,-9.8484,56,40
165,2013-07-22 12:06:16,1374494776,55.3616,-9.82528,2,2,2013-07-22 12:00:00,1374494400,17,3,15.6,30,0,55.3722,-9.89759999999998,34,40
166,2013-07-22 13:06:09,1374498369,55.38057,-9.96044,1,2,2013-07-22 13:00:00,1374498000,17.1,3,15.6,30,60,55.3722,-9.89759999999998,34,40
167,2013-07-22 14:06:09,1374501969,55.40098,-9.96044,3,2,2013-07-22 14:00:00,1374501600,17.05,4,15.6,30,120,55.3722,-9.89759999999998,34,40
168,2013-07-22 15:06:10,1374505570,55.3616,-9.82528,2,5,2013-07-22 15:00:00,1374505200,17.13,3,15.6,30,0,55.4,-9.88919999999999,34,40
169,2013-07-22 16:06:09,1374509169,55.41114,-9.83605,4,2,2013-07-22 16:00:00,1374508800,17.16,3,15.6,30,60,55.4,-9.88919999999999,34,40
170,2013-07-22 17:06:17,1374512777,55.40607,-9.89826,2,3,2013-07-22 17:00:00,1374512400,17.19,3,15.6,30,120,55.4,-9.88919999999999,34,40
171,2013-07-22 18:06:11,1374516371,55.41618,-9.77382,10,3,2013-07-22 18:00:00,1374516000,17.17,4,15.6,30,0,55.4068,-9.83599999999998,56,40
172,2013-07-22 19:06:10,1374519970,55.44029,-9.84685,3,3,2013-07-22 19:00:00,1374519600,17.1,4,15.6,30,60,55.4068,-9.83599999999998,56,40
173,2013-07-22 20:06:09,1374523569,55.39881,-10.34436,149,8,2013-07-22 20:00:00,1374523200,16.97,3,15.6,30,120,55.4068,-9.83599999999998,56,40
174,2013-07-22 21:06:15,1374527175,55.41618,-9.77382,2,4,2013-07-22 21:00:00,1374526800,17.03,4,15.6,30,0,55.4022,-9.83320000000001,84,40
175,2013-07-22 22:06:09,1374530769,55.3616,-9.82528,8,2,2013-07-22 22:00:00,1374530400,16.78,4,15.6,30,60,55.4022,-9.83320000000001,84,40
176,2013-07-22 23:06:10,1374534370,55.35654,-9.88742,6,3,2013-07-22 23:00:00,1374534000,16.84,4,15.6,30,120,55.4022,-9.83320000000001,84,40
177,2013-07-23 00:06:12,1374537972,55.40607,-9.89826,2,4,2013-07-23 00:00:00,1374537600,16.79,4,15.6,30,0,55.401,-9.86239999999998,32,40
178,2013-07-23 01:06:14,1374541574,55.31439,-11.80428,143,1,2013-07-23 01:00:00,1374541200,16.77,4,15.6,30,60,55.401,-9.86239999999998,32,40
179,2013-07-23 02:06:09,1374545169,55.38567,-9.89826,3,2,2013-07-23 02:00:00,1374544800,16.69,4,15.6,30,120,55.401,-9.86239999999998,32,40
180,2013-07-23 03:06:09,1374548769,55.46994,-8.9529,98,2,2013-07-23 03:00:00,1374548400,16.71,4,15.6,30,0,55.4222,-9.85899999999998,32,40
181,2013-07-23 04:06:16,1374552376,55.41114,-9.83605,2,2,2013-07-23 04:00:00,1374552000,16.71,2,15.6,30,60,55.4222,-9.85899999999998,32,40
182,2013-07-23 05:06:23,1374555983,55.49258,-8.6403,102,1,2013-07-23 05:00:00,1374555600,16.68,3,15.6,30,120,55.4222,-9.85899999999998,32,40
183,2013-07-23 06:06:12,1374559572,55.41114,-9.83605,2,7,2013-07-23 06:00:00,1374559200,16.63,4,15.6,30,0,55.4328,-9.821,32,44
184,2013-07-23 07:06:09,1374563169,55.5467,-7.69096,172,1,2013-07-23 07:00:00,1374562800,16.6,3,15.6,30,60,55.4328,-9.821,32,44
185,2013-07-23 08:06:10,1374566770,55.41618,-9.77382,1,0,2013-07-23 08:00:00,1374566400,16.63,2,15.6,30,120,55.4328,-9.821,32,44
186,2013-07-23 09:06:13,1374570373,55.43522,-9.90912,3,3,2013-07-23 09:00:00,1374570000,16.72,3,15.6,30,0,55.432,-9.80859999999998,32,44
187,2013-07-23 10:06:15,1374573975,55.41114,-9.83605,5,0,2013-07-23 10:00:00,1374573600,16.87,3,15.6,30,60,55.432,-9.80859999999998,32,44
188,2013-07-23 11:06:10,1374577570,55.40607,-9.89826,2,19,2013-07-23 11:00:00,1374577200,16.89,2,15.6,30,120,55.432,-9.80859999999998,32,44
189,2013-07-23 12:06:14,1374581174,55.40607,-9.89826,2,3,2013-07-23 12:00:00,1374580800,16.88,3,15.6,30,0,55.4226,-9.8296,32,40
190,2013-07-23 13:06:15,1374584775,55.44534,-9.78456,8,3,2013-07-23 13:00:00,1374584400,16.98,4,15.6,30,60,55.4226,-9.8296,32,40
191,2013-07-23 14:06:11,1374588371,55.41114,-9.83605,3,2,2013-07-23 14:00:00,1374588000,17.11,3,15.6,30,120,55.4226,-9.8296,32,40
192,2013-07-23 15:06:10,1374591970,55.40607,-9.89826,3,5,2013-07-23 15:00:00,1374591600,16.83,3,15.6,30,0,55.4322,-9.8484,32,44
193,2013-07-23 16:06:11,1374595571,55.40607,-9.89826,3,5,2013-07-23 16:00:00,1374595200,16.94,3,15.6,30,60,55.4322,-9.8484,32,44
194,2013-07-23 17:06:10,1374599170,55.46067,-9.84685,2,3,2013-07-23 17:00:00,1374598800,17.02,3,15.6,30,120,55.4322,-9.8484,32,44
195,2013-07-23 18:06:16,1374602776,55.65701,-13.28057,237,4,2013-07-23 18:00:00,1374602400,17.01,3,15.6,30,0,55.4556,-9.81780000000001,32,44
196,2013-07-23 19:06:14,1374606374,55.41618,-9.77382,6,4,2013-07-23 19:00:00,1374606000,16.89,3,15.6,30,60,55.4556,-9.81780000000001,32,44
197,2013-07-23 20:06:11,1374609971,55.5875,-12.60453,191,10,2013-07-23 20:00:00,1374609600,16.75,3,15.6,30,120,55.4556,-9.81780000000001,32,44
198,2013-07-23 21:06:11,1374613571,55.46067,-9.84685,1,2,2013-07-23 21:00:00,1374613200,16.81,3,15.6,30,0,55.4594,-9.7876,32,44
199,2013-07-23 22:06:13,1374617173,55.56152,-12.26747,179,5,2013-07-23 22:00:00,1374616800,16.71,3,15.6,30,60,55.4594,-9.7876,32,44
200,2013-07-23 23:06:11,1374620771,55.41618,-9.77382,2,8,2013-07-23 23:00:00,1374620400,16.69,4,15.6,30,120,55.4594,-9.7876,32,44
201,2013-07-24 00:06:15,1374624375,55.41114,-9.83605,2,2,2013-07-24 00:00:00,1374624000,16.7,4,15.6,30,0,55.4476,-9.80159999999998,32,40
202,2013-07-24 01:06:13,1374627973,55.41114,-9.83605,3,4,2013-07-24 01:00:00,1374627600,16.69,3,15.6,30,60,55.4476,-9.80159999999998,32,40
203,2013-07-24 02:06:10,1374631570,55.44534,-9.78456,2,3,2013-07-24 02:00:00,1374631200,16.67,4,15.6,30,120,55.4476,-9.80159999999998,32,40
204,2013-07-24 03:06:14,1374635174,55.36467,-11.49552,127,3,2013-07-24 03:00:00,1374634800,16.62,4,15.6,30,0,55.446,-9.834,50,40
205,2013-07-24 04:06:10,1374638770,55.44029,-9.84685,2,1,2013-07-24 04:00:00,1374638400,16.46,4,15.6,30,60,55.446,-9.834,50,40
206,2013-07-24 05:06:11,1374642371,55.46571,-9.78456,3,6,2013-07-24 05:00:00,1374642000,16.53,4,15.6,30,120,55.446,-9.834,50,40
207,2013-07-24 06:06:13,1374645973,55.46571,-9.78456,2,1,2013-07-24 06:00:00,1374645600,16.56,4,15.6,30,0,55.4722,-9.81219999999999,32,40
208,2013-07-24 07:06:14,1374649574,55.56408,-8.33636,114,1,2013-07-24 07:00:00,1374649200,16.48,3,15.6,30,60,55.4722,-9.81219999999999,32,40
209,2013-07-24 08:06:10,1374653170,55.48983,-9.85767,3,1,2013-07-24 08:00:00,1374652800,16.4,4,15.6,30,120,55.4722,-9.81219999999999,32,40
210,2013-07-24 09:06:13,1374656773,55.46571,-9.78456,12,1,2013-07-24 09:00:00,1374656400,16.34,4,15.6,30,0,55.4784,-9.7724,86,40
211,2013-07-24 10:06:21,1374660381,55.49991,-9.73293,5,1,2013-07-24 10:00:00,1374660000,16.39,4,15.6,30,60,55.4784,-9.7724,86,40
212,2013-07-24 11:06:14,1374663974,55.47073,-9.72224,3,2,2013-07-24 11:00:00,1374663600,16.39,3,15.6,30,120,55.4784,-9.7724,86,40
213,2013-07-24 12:06:29,1374667589,55.46571,-9.78456,3,2,2013-07-24 12:00:00,1374667200,16.43,4,15.6,30,0,55.4542,-9.7792,152,40
214,2013-07-24 13:06:13,1374671173,55.41618,-9.77382,6,3,2013-07-24 13:00:00,1374670800,16.43,4,15.6,30,60,55.4542,-9.7792,152,40
215,2013-07-24 14:06:10,1374674770,55.46571,-9.78456,2,4,2013-07-24 14:00:00,1374674400,16.44,4,15.6,30,120,55.4542,-9.7792,152,40
216,2013-07-24 15:06:14,1374678374,55.46067,-9.84685,2,2,2013-07-24 15:00:00,1374678000,16.47,6,15.6,30,0,55.4482,-9.8124,50,44
217,2013-07-24 16:06:15,1374681975,55.43522,-9.90912,13,3,2013-07-24 16:00:00,1374681600,16.45,4,15.6,30,60,55.4482,-9.8124,50,44
218,2013-07-24 17:06:13,1374685573,55.41618,-9.77382,9,6,2013-07-24 17:00:00,1374685200,16.51,5,15.6,30,120,55.4482,-9.8124,50,44
219,2013-07-24 18:06:22,1374689182,55.79939,-14.85735,328,12,2013-07-24 18:00:00,1374688800,16.54,4,15.6,30,0,55.471,-9.79579999999999,32,40
220,2013-07-24 19:06:09,1374692769,55.46571,-9.78456,2,8,2013-07-24 19:00:00,1374692400,16.45,4,15.6,30,60,55.471,-9.79579999999999,32,40
221,2013-07-24 20:06:10,1374696370,55.75534,-14.96428,339,5,2013-07-24 20:00:00,1374696000,16.38,3,15.6,30,120,55.471,-9.79579999999999,32,40
222,2013-07-24 21:06:10,1374699970,55.49991,-9.73293,5,7,2013-07-24 21:00:00,1374699600,16.41,4,15.6,30,0,55.4726,-9.74639999999999,34,40
223,2013-07-24 22:06:09,1374703569,55.44534,-9.78456,2,2,2013-07-24 22:00:00,1374703200,16.39,4,15.6,30,60,55.4726,-9.74639999999999,34,40
224,2013-07-24 23:06:09,1374707169,55.47073,-9.72224,3,1,2013-07-24 23:00:00,1374706800,16.35,4,15.6,30,120,55.4726,-9.74639999999999,34,40
225,2013-07-25 00:06:09,1374710769,55.47073,-9.72224,2,1,2013-07-25 00:00:00,1374710400,16.41,5,15.6,30,0,55.4514,-9.7414,94,40
226,2013-07-25 01:06:09,1374714369,55.37023,-14.35787,300,2,2013-07-25 01:00:00,1374714000,16.31,4,15.6,30,60,55.4514,-9.7414,94,40
227,2013-07-25 02:06:10,1374717970,55.41618,-9.77382,5,2,2013-07-25 02:00:00,1374717600,16.28,4,15.6,30,120,55.4514,-9.7414,94,40
228,2013-07-25 03:06:10,1374721570,55.27526,-13.15038,231,1,2013-07-25 03:00:00,1374721200,16.31,4,15.6,30,0,55.4424,-9.76079999999999,62,28
229,2013-07-25 04:06:12,1374725172,55.47073,-9.72224,3,1,2013-07-25 04:00:00,1374724800,16.38,4,15.6,30,60,55.4424,-9.76079999999999,62,28
230,2013-07-25 05:06:09,1374728769,55.4245,-10.73997,90,1,2013-07-25 05:00:00,1374728400,16.4,3,15.6,30,120,55.4424,-9.76079999999999,62,28